Regional Weather Roundup
Issued by NWS

Home | Current Version | Previous Version | Text Only | Print | Product List | Glossary On
Versions: 1 2 3 4 5 6 7 8 9 10 11 12 13 14 15 16 17 18 19 20 21 22 23 24 25 26 27 28 29 30 31 32 33 34 35 36 37 38 39 40 41 42 43 44 45 46 47 48 49 50
000
ASUS43 KDTX 271310
RWRMI
MICHIGAN HOURLY REGIONAL WEATHER ROUNDUP
NATIONAL WEATHER SERVICE DETROIT/PONTIAC MI
900 AM EDT WED MAY 27 2015

NOTE: "FAIR" INDICATES FEW OR NO CLOUDS BELOW 12,000 FEET WITH NO
SIGNIFICANT WEATHER AND/OR OBSTRUCTION TO VISIBILITY.

MIZ047>049-052>055-059>063-066>070-074>076-081>083-271400-
SOUTHEAST LOWER MICHIGAN

CITY           SKY/WX    TMP DP  RH WIND       PRES   REMARKS
ADRIAN         SUNNY     69  62  78 SW12G20   29.99S
ALMA           CLOUDY    69  63  82 SW12      29.88S
ANN ARBOR      SUNNY     69  62  78 SW16      29.97R
BAD AXE        CLOUDY    69  61  74 SW15G24   29.89R
CARO           PTSUNNY   71  62  75 SW12G18   29.89S
DETROIT CITY   SUNNY     71  62  73 SW15G22   29.97R
DETROIT        MOSUNNY   72  61  68 SW21G26   29.98R
FLINT          MOSUNNY   73  61  65 SW15G23   29.93R
GROSSE ILE     MOSUNNY   72  64  78 SW12      29.98R
HILLSDALE      SUNNY     69  64  84 SW14G20   29.98S
HOWELL         MOSUNNY   71  62  73 SW14      29.95R

CITY           SKY/WX    TMP DP  RH WIND       PRES   REMARKS
JACKSON        MOSUNNY   69  61  75 SW20G25   29.96R
LAMBERTVILLE   SUNNY     72  61  68 SW9G17    30.00S
LANSING        SUNNY     70  61  73 SW16G25   29.92R
LAPEER         FAIR      70  60  70 SW16      29.93R
MASON          MOSUNNY   67  60  77 SW9G17    29.94S
MONROE         SUNNY     72  63  73 SW15G22   29.98R
MT. CLEMENS    MOSUNNY   73  62  70 SW15G21   29.94R
PONTIAC        MOSUNNY   69  61  75 SW14G24   29.95R
PORT HOPE        N/A    N/A N/A N/A SW10G22   29.85S
PORT HURON     SUNNY     70  64  83 S16       29.95R
TRI CITIES     PTSUNNY   71  61  70 SW18G25   29.87S
MIDLAND        CLOUDY    70  61  74 SW12      29.85S
TROY           MOSUNNY   70  63  76 SW14G22   29.98R
SAGINAW HB     PTSUNNY   70  63  78 SW14      29.88R
$$
MIZ043>046-050>051-056>058-064>065-071>073-077>080-271400-
SOUTHWEST LOWER MICHIGAN

CITY           SKY/WX    TMP DP  RH WIND       PRES   REMARKS
BATTLE CREEK   MOSUNNY   70  61  73 SW15      29.95R
BENTON HARBOR  SUNNY     68  61  78 SW18G30   29.94R
BIG RAPIDS     CLOUDY    64  59  85 SW14G21   29.86R
COLDWATER      SUNNY     69  61  75 SW16G23   29.97S
FREMONT        CLOUDY    61  60  97 SW12G18   29.87R
HOLLAND        CLOUDY    67  60  78 SW23G29   29.92R
GRAND RAPIDS   PTSUNNY   69  62  78 SW16G25   29.90R
IONIA          CLOUDY    70  61  73 SW18      29.89S
KALAMAZOO      MOSUNNY   71  61  70 SW14G20   29.94S
LUDINGTON      CLOUDY    56  53  89 SW10      29.85R
MARSHALL       PTSUNNY   69  62  76 SW12G22   29.95R
MOUNT PLEASANT CLOUDY    67  61  79 SW12G23   29.86R
MUSKEGON       CLOUDY    59  56  89 SW17      29.89R
SOUTH HAVEN    SUNNY     69  60  73 SW18G24   29.93R
$$
MIZ016>042-271400-
NORTHERN LOWER MICHIGAN

CITY           SKY/WX    TMP DP  RH WIND       PRES   REMARKS
ALPENA         SUNNY     71  60  68 SW15G28   29.77R
BEAVER ISLAND  DRZL/FOG  47  46  98 SW16G22   29.73R VSB 1/4
BELLAIRE       CLOUDY    63  56  80 S8G23     29.78S
CADILLAC       CLOUDY    64  58  81 SW18      29.83R
CHARLEVOIX     CLOUDY    60  58  92 SW12G18   29.78R FOG
FRANKFORT      CLOUDY    59  51  75 SW9G20    29.80S
GAYLORD        CLOUDY    63  58  83 SW18G30   29.79R
GRAYLING       CLOUDY    66  55  68 SW15G30   29.81S
HARBOR SPRINGS CLOUDY    58  56  92 SW13G22   29.74R
HOUGHTON LAKE  PTSUNNY   65  58  78 SW13G23   29.83R
MANISTEE       CLOUDY    61  54  77 SW12G18   29.83S
OSCODA         CLOUDY    69  63  81 SW13      29.81S
PELLSTON       LGT RAIN  61  59  93 SW15G26   29.74R FOG
ROGERS CITY    CLOUDY    68  60  75 SW12G21   29.76R
TRAVERSE CITY  CLOUDY    64  57  78 SW9       29.78S
$$
MIZ007>008-015-271400-
EASTERN UPPER MICHIGAN

CITY           SKY/WX    TMP DP  RH WIND       PRES   REMARKS
KINROSS        CLOUDY    57  57 100 SW12G18   29.70R
MACKINAC ISLAN CLOUDY    58  58 100 SW15G23   29.72R FOG
NEWBERRY       CLOUDY    52  52  97 W7        29.68R
S. S. MARIE    LGT RAIN  61  59  93 S9        29.67S FOG
MUNISING         N/A     48  45  89 N13G21    29.72R
$$
MIZ004>006-011>014-085-271400-
CENTRAL UPPER MICHIGAN

CITY           SKY/WX    TMP DP  RH WIND       PRES   REMARKS
MANISTIQUE     CLOUDY    51  49  93 NW9       29.71R
ESCANABA       CLOUDY    54  50  87 SW6       29.74R
MENOMINEE      CLOUDY    57  54  88 NW8       29.77R
SAWYER-GWINN   RAIN      54  52  94 NW12      29.75R
$$
MIZ001>003-009>011-084-271400-
WESTERN UPPER MICHIGAN

CITY           SKY/WX    TMP DP  RH WIND       PRES   REMARKS
IRON MOUNTAIN  LGT RAIN  55  52  89 NW9       29.78R
HOUGHTON       CLOUDY    52  50  93 W14       29.75S
COPPER HARBOR    N/A     47  44  90 CALM      29.73R
IRONWOOD       CLOUDY    55  55 100 W8        29.80S
$$

ABBREVIATIONS USED IN REMARKS
   TC - TEMPERATURE IN CELSIUS
  WCI - WIND CHILL INDEX
   HX - HEAT INDEX
  VSB - VISIBILITY




USA.gov is the U.S. government's official web portal to all federal, state and local government web resources and services.